SV7JLF-3 Weather Reports


time (UTC)temp
C
wind
direction
speed
KPH
gust
KPH
rain 1hr
cm
rain 24hr
cm
rain mn
cm
humidity
%
barometer
mb
20260506153518 27 198 12.9 0.0 0.00 0.00 0.03 34 1013.8
20260506153050 27 215 12.9 0.0 0.00 0.00 0.03 36 1013.9
20260506153010 27 200 12.9 0.0 0.00 0.00 0.03 35 1013.8
20260506152953 27 205 14.5 22.5 0.00 0.03 0.03 36 1013.4
20260506152511 27 192 12.9 0.0 0.00 0.00 0.03 36 1013.9
20260506152051 27 220 12.9 0.0 0.00 0.00 0.03 37 1013.8
20260506151954 27 224 14.5 20.9 0.00 0.03 0.03 36 1013.3
20260506151550 27 227 11.3 0.0 0.00 0.00 0.03 38 1013.8
20260506151027 27 212 12.9 0.0 0.00 0.00 0.03 36 1013.8
20260506150523 27 196 14.5 0.0 0.00 0.00 0.03 37 1013.9
20260506150119 27 199 11.3 0.0 0.00 0.00 0.03 38 1013.8
20260506150021 27 198 9.7 0.0 0.00 0.00 0.03 37 1013.8
20260506145954 27 195 14.5 25.7 0.00 0.03 0.03 37 1013.6
20260506145542 27 207 9.7 0.0 0.00 0.00 0.03 39 1013.9
20260506145015 28 205 11.3 0.0 0.00 0.00 0.03 38 1013.8
20260506144954 28 235 8.0 19.3 0.00 0.03 0.03 38 1013.4
20260506144618 27 229 11.3 0.0 0.00 0.00 0.03 38 1013.9
20260506144515 28 235 9.7 0.0 0.00 0.00 0.03 36 1013.9
20260506144028 28 225 8.0 0.0 0.00 0.00 0.03 34 1013.9
20260506143953 28 228 9.7 19.3 0.00 0.03 0.03 38 1013.6
20260506143548 27 285 6.4 0.0 0.00 0.00 0.03 42 1014.0
20260506143118 27 318 8.0 0.0 0.00 0.00 0.03 41 1013.9
20260506143025 27 342 8.0 0.0 0.00 0.00 0.03 39 1014.0
20260506142518 28 49 6.4 0.0 0.00 0.00 0.03 41 1013.8
20260506142017 28 37 4.8 0.0 0.00 0.00 0.03 39 1013.9
20260506141954 28 20 3.2 9.7 0.00 0.03 0.03 39 1013.6
20260506141533 27 65 4.8 0.0 0.00 0.00 0.03 39 1013.9
20260506141510 27 68 4.8 0.0 0.00 0.00 0.03 38 1014.0
20260506141012 28 34 8.0 0.0 0.00 0.00 0.03 40 1013.9
20260506140953 27 37 3.2 14.5 0.00 0.03 0.03 40 1013.6
20260506140532 27 42 9.7 0.0 0.00 0.00 0.03 39 1014.0
20260506140054 27 61 11.3 0.0 0.00 0.00 0.03 40 1014.0
20260506140022 28 45 11.3 0.0 0.00 0.00 0.03 40 1014.0
20260506135523 28 43 9.7 0.0 0.00 0.00 0.03 41 1014.0
20260506135017 28 67 9.7 0.0 0.00 0.00 0.03 40 1014.2
20260506134613 27 86 9.7 0.0 0.00 0.00 0.03 40 1014.1
20260506134535 27 93 8.0 0.0 0.00 0.00 0.03 42 1014.1
20260506134014 27 51 9.7 0.0 0.00 0.00 0.03 42 1014.2
20260506133954 27 68 9.7 16.1 0.00 0.03 0.03 42 1013.9
20260506133554 27 80 8.0 0.0 0.00 0.00 0.03 41 1014.1
20260506133053 27 49 9.7 0.0 0.00 0.00 0.03 42 1014.1
20260506133026 27 78 9.7 0.0 0.00 0.00 0.03 42 1014.2
20260506132954 27 46 9.7 19.3 0.00 0.03 0.03 43 1013.8
20260506132524 27 37 9.7 0.0 0.00 0.00 0.03 41 1014.3
20260506132021 27 68 9.7 0.0 0.00 0.00 0.03 42 1014.4
20260506131612 27 68 11.3 0.0 0.00 0.00 0.03 41 1014.3
20260506131520 27 77 11.3 0.0 0.00 0.00 0.03 41 1014.5
20260506131041 27 55 11.3 0.0 0.00 0.00 0.03 42 1014.7
20260506130954 27 66 12.9 19.3 0.00 0.03 0.03 42 1014.3
20260506130512 27 66 11.3 0.0 0.00 0.00 0.03 42 1014.7
20260506130111 26 71 12.9 0.0 0.00 0.00 0.03 42 1014.6
20260506130011 27 49 14.5 0.0 0.00 0.00 0.03 40 1014.7
20260506125954 27 50 11.3 19.3 0.00 0.03 0.03 42 1014.3
20260506125520 27 63 14.5 0.0 0.00 0.00 0.03 41 1014.7
20260506125021 27 65 12.9 0.0 0.00 0.00 0.03 41 1014.7
20260506124955 27 61 14.5 20.9 0.00 0.03 0.03 41 1014.5
20260506124528 26 27 14.5 0.0 0.00 0.00 0.03 41 1014.7
20260506124513 27 64 14.5 0.0 0.00 0.00 0.03 41 1014.8
20260506124013 27 71 16.1 0.0 0.00 0.00 0.03 40 1014.9
20260506123954 27 76 16.1 22.5 0.00 0.03 0.03 40 1014.4
20260506123530 27 63 16.1 0.0 0.00 0.00 0.03 38 1014.8
20260506123047 27 85 16.1 0.0 0.00 0.00 0.03 38 1014.9
20260506123022 27 90 16.1 0.0 0.00 0.00 0.03 38 1014.8
20260506122955 27 82 14.5 22.5 0.00 0.03 0.03 38 1014.6
20260506122522 27 53 14.5 0.0 0.00 0.00 0.03 39 1014.9
20260506122015 27 77 14.5 0.0 0.00 0.00 0.03 39 1014.9
20260506121954 27 92 14.5 20.9 0.00 0.03 0.03 41 1014.6
20260506121606 27 94 12.9 0.0 0.00 0.00 0.03 41 1014.9
20260506121536 27 64 12.9 0.0 0.00 0.00 0.03 40 1015.0
20260506121015 27 63 12.9 0.0 0.00 0.00 0.03 43 1015.0
20260506120954 27 109 8.0 20.9 0.00 0.03 0.03 42 1014.7
20260506120509 27 102 11.3 0.0 0.00 0.00 0.03 41 1015.1
20260506120108 27 111 8.0 0.0 0.00 0.00 0.03 43 1015.0
20260506120047 27 101 8.0 0.0 0.00 0.00 0.03 44 1015.3
20260506115955 27 71 8.0 19.3 0.03 0.03 0.03 42 1014.7
20260506115527 27 127 6.4 0.0 0.00 0.00 0.03 42 1015.1
20260506115021 27 26 9.7 0.0 0.00 0.00 0.03 42 1015.4
20260506114954 27 48 6.4 19.3 0.03 0.03 0.03 43 1014.9
20260506114604 26 67 9.7 0.0 0.00 0.00 0.03 43 1015.3
20260506114540 27 54 9.7 0.0 0.00 0.00 0.03 42 1015.4
20260506114017 27 39 8.0 0.0 0.00 0.00 0.03 42 1015.3
20260506113954 27 52 8.0 19.3 0.03 0.03 0.03 43 1014.9
20260506113509 26 49 6.4 0.0 0.00 0.00 0.03 41 1015.4
20260506113100 26 98 4.8 0.0 0.00 0.00 0.03 43 1015.2
20260506113026 26 78 4.8 0.0 0.00 0.00 0.03 43 1015.3
20260506112526 26 105 4.8 0.0 0.00 0.00 0.03 38 1015.4
20260506112019 26 86 4.8 0.0 0.00 0.00 0.03 40 1015.6
20260506111618 26 84 3.2 0.0 0.00 0.00 0.03 41 1015.4
20260506111517 26 17 3.2 0.0 0.00 0.00 0.03 40 1015.6
20260506111011 26 43 3.2 0.0 0.00 0.00 0.03 38 1015.8
20260506110955 26 31 3.2 9.7 0.03 0.03 0.03 40 1015.3
20260506110510 26 26 6.4 0.0 0.00 0.00 0.00 38 1015.6
20260506110029 26 31 8.0 0.0 0.00 0.00 0.00 38 1015.8
20260506110008 26 31 9.7 0.0 0.00 0.00 0.00 38 1015.7
20260506105954 26 88 9.7 16.1 0.00 0.00 0.00 37 1015.3
20260506105520 26 90 6.4 0.0 0.00 0.00 0.00 39 1015.8
20260506105037 26 103 4.8 0.0 0.00 0.00 0.00 38 1015.8
20260506104955 26 88 4.8 12.9 0.00 0.00 0.00 38 1015.4
20260506104624 25 89 6.4 0.0 0.00 0.00 0.00 39 1015.6
20260506104516 25 110 6.4 0.0 0.00 0.00 0.00 39 1015.8
20260506104024 25 35 6.4 0.0 0.00 0.00 0.00 41 1015.9
20260506103954 25 68 6.4 11.3 0.00 0.00 0.00 41 1015.5
20260506103521 25 36 6.4 0.0 0.00 0.00 0.00 41 1015.9
20260506103039 25 106 4.8 0.0 0.00 0.00 0.00 39 1016.0
20260506103013 25 89 4.8 0.0 0.00 0.00 0.00 40 1016.0
20260506102954 25 101 8.0 11.3 0.00 0.00 0.00 41 1015.6
20260506102512 25 76 4.8 0.0 0.00 0.00 0.00 43 1016.2
20260506102032 25 94 4.8 0.0 0.00 0.00 0.00 42 1016.1
20260506101552 25 46 6.4 0.0 0.00 0.00 0.00 42 1016.2
20260506101525 25 43 6.4 0.0 0.00 0.00 0.00 42 1016.2
20260506101022 25 126 4.8 0.0 0.00 0.00 0.00 42 1016.2
20260506100954 25 111 8.0 11.3 0.00 0.00 0.00 44 1016.0
20260506100514 25 104 4.8 0.0 0.00 0.00 0.00 44 1016.5
20260506100109 24 88 4.8 0.0 0.00 0.00 0.00 45 1016.4
20260506100033 24 101 4.8 0.0 0.00 0.00 0.00 44 1016.6
20260506095954 24 74 6.4 12.9 0.00 0.00 0.00 44 1016.1
20260506095510 24 5 4.8 0.0 0.00 0.00 0.00 46 1016.6
20260506095020 24 101 4.8 0.0 0.00 0.00 0.00 45 1016.4
20260506094954 24 98 6.4 11.3 0.00 0.00 0.00 45 1016.2
20260506094624 23 98 3.2 0.0 0.00 0.00 0.00 44 1016.5
20260506094521 23 39 3.2 0.0 0.00 0.00 0.00 44 1016.5
20260506094011 23 24 4.8 0.0 0.00 0.00 0.00 45 1016.6
20260506093955 23 25 3.2 12.9 0.00 0.00 0.00 46 1016.3
20260506093510 24 111 6.4 0.0 0.00 0.00 0.00 45 1016.6
20260506093117 23 82 6.4 0.0 0.00 0.00 0.00 47 1016.5
20260506093024 23 92 4.8 0.0 0.00 0.00 0.00 49 1016.6
20260506092955 23 85 4.8 12.9 0.00 0.00 0.00 49 1016.2
20260506092517 23 85 4.8 0.0 0.00 0.00 0.00 49 1016.6
20260506092035 23 47 4.8 0.0 0.00 0.00 0.00 47 1016.6
20260506091954 23 47 4.8 11.3 0.00 0.00 0.00 46 1016.2
20260506091610 23 57 4.8 0.0 0.00 0.00 0.00 49 1016.6
20260506091513 23 86 3.2 0.0 0.00 0.00 0.00 49 1016.6
20260506091032 23 33 3.2 0.0 0.00 0.00 0.00 47 1016.7
20260506090955 23 38 3.2 8.0 0.00 0.00 0.00 47 1016.3
20260506090523 22 68 3.2 0.0 0.00 0.00 0.00 49 1016.7
20260506090021 22 108 4.8 0.0 0.00 0.00 0.00 50 1016.6
20260506090002 22 108 4.8 0.0 0.00 0.00 0.00 47 1016.6
20260506085512 22 97 3.2 0.0 0.00 0.00 0.00 49 1016.6
20260506085011 22 128 3.2 0.0 0.00 0.00 0.00 51 1016.7
20260506084955 22 127 1.6 4.8 0.00 0.00 0.00 50 1016.3
20260506084543 22 92 3.2 0.0 0.00 0.00 0.00 49 1016.6
20260506084522 22 63 3.2 0.0 0.00 0.00 0.00 49 1016.6
20260506084017 22 112 3.2 0.0 0.00 0.00 0.00 49 1016.7
20260506083955 21 104 1.6 4.8 0.00 0.00 0.00 49 1016.3
20260506083532 21 69 3.2 0.0 0.00 0.00 0.00 50 1016.8
20260506083047 21 342 3.2 0.0 0.00 0.00 0.00 49 1016.7
20260506083022 21 342 3.2 0.0 0.00 0.00 0.00 49 1016.7
20260506082955 21 345 3.2 4.8 0.00 0.00 0.00 51 1016.4
20260506082516 21 343 3.2 0.0 0.00 0.00 0.00 50 1016.6
20260506082029 21 67 3.2 0.0 0.00 0.00 0.00 50 1016.7
20260506081955 21 67 3.2 4.8 0.00 0.00 0.00 50 1016.3
20260506081546 21 9 3.2 0.0 0.00 0.00 0.00 51 1016.7
20260506081518 21 5 3.2 0.0 0.00 0.00 0.00 51 1016.7
20260506081031 21 128 3.2 0.0 0.00 0.00 0.00 53 1016.7
20260506080955 21 115 1.6 4.8 0.00 0.00 0.00 52 1016.4
20260506080546 21 79 3.2 0.0 0.00 0.00 0.00 52 1016.6
20260506080127 20 194 3.2 0.0 0.00 0.00 0.00 55 1016.7
20260506073520 20 64 3.2 0.0 0.00 0.00 0.00 56 1016.7
20260506073033 19 21 1.6 0.0 0.00 0.00 0.00 57 1016.6
20260506073008 19 21 1.6 0.0 0.00 0.00 0.00 57 1016.6
20260506072957 19 20 3.2 4.8 0.00 0.00 0.00 57 1016.5
20260506072524 19 120 1.6 0.0 0.00 0.00 0.00 57 1016.6
20260506072013 19 360 1.6 0.0 0.00 0.00 0.00 59 1016.7
20260506071955 19 321 1.6 3.2 0.00 0.00 0.00 59 1016.5
20260506071529 19 304 1.6 0.0 0.00 0.00 0.00 59 1016.7
20260506071507 18 305 3.2 0.0 0.00 0.00 0.00 59 1016.7
20260506071017 19 42 3.2 0.0 0.00 0.00 0.00 58 1016.8
20260506070956 19 42 3.2 4.8 0.00 0.00 0.00 59 1016.6
20260506070529 19 115 3.2 0.0 0.00 0.00 0.00 60 1016.9
20260506070133 18 55 3.2 0.0 0.00 0.00 0.00 61 1016.7
20260506062025 16 69 1.6 0.0 0.00 0.00 0.00 68 1017.2
20260506061955 16 85 0.0 3.2 0.00 0.00 0.00 69 1016.9
20260506061630 16 85 1.6 0.0 0.00 0.00 0.00 69 1017.2
20260506061541 16 85 1.6 0.0 0.00 0.00 0.00 70 1017.3
20260506061052 15 34 1.6 0.0 0.00 0.00 0.00 72 1017.3
20260506060957 15 13 1.6 3.2 0.00 0.00 0.00 72 1017.0
20260506060526 15 355 1.6 0.0 0.00 0.00 0.00 72 1017.4
20260506051031 11 325 3.2 0.0 0.00 0.00 0.00 84 1017.4
20260506050955 11 325 1.6 4.8 0.00 0.00 0.00 84 1017.0
20260506050523 11 325 0.0 0.0 0.00 0.00 0.00 85 1017.2
20260506050145 11 325 0.0 0.0 0.00 0.00 0.00 86 1017.2
20260506045038 10 205 0.0 0.0 0.00 0.00 0.00 87 1017.1
20260506044956 10 205 0.0 3.2 0.00 0.00 0.00 87 1016.7
20260506044615 10 205 0.0 0.0 0.00 0.00 0.00 87 1017.1
20260506044528 10 203 0.0 0.0 0.00 0.00 0.00 87 1017.1
20260506044023 10 189 0.0 0.0 0.00 0.00 0.00 87 1017.1
20260506043528 10 209 0.0 0.0 0.00 0.00 0.00 87 1016.8
20260506043107 9 202 0.0 0.0 0.00 0.00 0.00 87 1016.8
20260506043024 9 202 0.0 0.0 0.00 0.00 0.00 87 1016.9
20260506042956 9 200 0.0 0.0 0.00 0.00 0.00 87 1016.4
20260506042537 9 200 0.0 0.0 0.00 0.00 0.00 87 1016.8
20260506042027 9 173 0.0 0.0 0.00 0.00 0.00 87 1016.7
20260506041612 8 160 0.0 0.0 0.00 0.00 0.00 87 1016.7
20260506041522 8 160 0.0 0.0 0.00 0.00 0.00 86 1016.9
20260506041034 8 160 0.0 0.0 0.00 0.00 0.00 86 1016.8
20260506040957 8 160 0.0 1.6 0.00 0.00 0.00 86 1016.3
20260506040525 8 160 0.0 0.0 0.00 0.00 0.00 86 1016.6
20260506040112 8 160 0.0 0.0 0.00 0.00 0.00 85 1016.8
20260506040038 8 160 0.0 0.0 0.00 0.00 0.00 85 1016.7
20260506035955 8 250 0.0 3.2 0.00 0.00 0.00 85 1016.3
20260506035528 8 42 0.0 0.0 0.00 0.00 0.00 85 1016.7
20260506035021 8 42 1.6 0.0 0.00 0.00 0.00 85 1016.5
20260506034956 8 129 0.0 4.8 0.00 0.00 0.00 84 1016.3
20260506034545 8 126 1.6 0.0 0.00 0.00 0.00 84 1016.5
20260506034526 8 126 1.6 0.0 0.00 0.00 0.00 84 1016.6
20260506034040 8 126 3.2 0.0 0.00 0.00 0.00 84 1016.4
20260506033956 8 126 1.6 4.8 0.00 0.00 0.00 84 1016.1
20260506033552 8 126 1.6 0.0 0.00 0.00 0.00 83 1016.4
20260506033108 8 169 1.6 0.0 0.00 0.00 0.00 83 1016.4
20260506033026 8 169 1.6 0.0 0.00 0.00 0.00 83 1016.5
20260506032956 8 169 1.6 4.8 0.00 0.00 0.00 83 1016.1
20260506032522 9 169 3.2 0.0 0.00 0.00 0.00 83 1016.5
20260506032027 9 169 3.2 0.0 0.00 0.00 0.00 82 1016.4
20260506031957 9 170 4.8 4.8 0.00 0.00 0.00 82 1016.2
20260506031613 8 207 1.6 0.0 0.00 0.00 0.00 82 1016.3
20260506031525 9 207 1.6 0.0 0.00 0.00 0.00 82 1016.5
20260506031050 9 207 0.0 0.0 0.00 0.00 0.00 82 1016.4
20260506030955 9 207 0.0 3.2 0.00 0.00 0.00 82 1016.0
20260506030524 10 207 0.0 0.0 0.00 0.00 0.00 82 1016.2
20260506030049 9 207 0.0 0.0 0.00 0.00 0.00 82 1016.2
20260506030034 10 207 0.0 0.0 0.00 0.00 0.00 82 1016.2
20260506025956 10 207 0.0 1.6 0.00 0.00 0.00 82 1015.7
20260506025528 10 207 0.0 0.0 0.00 0.00 0.00 81 1016.2
20260506025039 10 207 3.2 0.0 0.00 0.00 0.00 81 1016.1
20260506024957 10 207 0.0 8.0 0.00 0.00 0.00 81 1015.6
20260506024554 10 207 6.4 0.0 0.00 0.00 0.00 81 1016.1
20260506024521 10 207 6.4 0.0 0.00 0.00 0.00 81 1016.1
20260506024027 10 213 6.4 0.0 0.00 0.00 0.00 81 1015.9
20260506023957 10 212 4.8 8.0 0.00 0.00 0.00 81 1015.6
20260506023519 10 208 6.4 0.0 0.00 0.00 0.00 81 1015.9
20260506023031 10 210 6.4 0.0 0.00 0.00 0.00 81 1016.1
20260506023010 10 211 6.4 0.0 0.00 0.00 0.00 81 1016.1
20260506022955 10 210 6.4 8.0 0.00 0.00 0.00 81 1015.8
20260506022523 10 219 6.4 0.0 0.00 0.00 0.00 81 1015.9
20260506022020 10 223 8.0 0.0 0.00 0.00 0.00 81 1016.1
20260506021543 10 211 8.0 0.0 0.00 0.00 0.00 81 1015.9
20260506021528 10 208 8.0 0.0 0.00 0.00 0.00 81 1016.0
20260506021024 10 212 8.0 0.0 0.00 0.00 0.00 81 1015.9
20260506020956 10 213 8.0 11.3 0.00 0.00 0.00 81 1015.7
20260506020534 10 223 8.0 0.0 0.00 0.00 0.00 81 1016.0
20260506020044 10 209 8.0 0.0 0.00 0.00 0.00 81 1015.8
20260506020025 10 212 8.0 0.0 0.00 0.00 0.00 81 1015.9
20260506015956 10 220 9.7 11.3 0.00 0.00 0.00 81 1015.6
20260506015558 10 225 6.4 0.0 0.00 0.00 0.00 81 1016.1
20260506015048 10 211 8.0 0.0 0.00 0.00 0.00 82 1016.1
20260506014956 10 216 8.0 11.3 0.00 0.00 0.00 82 1015.6
20260506014609 10 210 8.0 0.0 0.00 0.00 0.00 82 1016.0
20260506014541 10 219 8.0 0.0 0.00 0.00 0.00 82 1016.0
20260506014033 10 221 8.0 0.0 0.00 0.00 0.00 82 1016.0
20260506013958 10 219 9.7 12.9 0.00 0.00 0.00 82 1015.6
20260506013528 10 212 8.0 0.0 0.00 0.00 0.00 82 1016.0
20260506013045 10 219 6.4 0.0 0.00 0.00 0.00 82 1015.9
20260506013029 10 220 6.4 0.0 0.00 0.00 0.00 82 1015.9
20260506012548 10 213 6.4 0.0 0.00 0.00 0.00 83 1016.0
20260506012024 10 219 8.0 0.0 0.00 0.00 0.00 83 1016.0
20260506011956 10 221 8.0 11.3 0.00 0.00 0.00 83 1015.8
20260506011632 9 218 8.0 0.0 0.00 0.00 0.00 83 1016.0
20260506011556 10 221 8.0 0.0 0.00 0.00 0.00 83 1016.0
20260506011049 10 214 8.0 0.0 0.00 0.00 0.00 83 1016.3
20260506010955 10 218 8.0 11.3 0.00 0.00 0.00 83 1015.8
20260506010544 10 218 8.0 0.0 0.00 0.00 0.00 83 1016.1
20260506010137 9 217 8.0 0.0 0.00 0.00 0.00 83 1016.0
20260506010039 10 221 6.4 0.0 0.00 0.00 0.00 83 1016.1
20260506005550 10 221 4.8 0.0 0.00 0.00 0.00 83 1016.1
20260506005044 10 230 4.8 0.0 0.00 0.00 0.00 83 1016.1
20260506004956 10 230 4.8 4.8 0.00 0.00 0.00 83 1015.9
20260506004536 10 230 4.8 0.0 0.00 0.00 0.00 83 1016.3
20260506004505 10 230 4.8 0.0 0.00 0.00 0.00 83 1016.2
20260506004054 10 231 4.8 0.0 0.00 0.00 0.00 82 1016.2
20260506003956 10 231 4.8 4.8 0.00 0.00 0.00 82 1015.9
20260506003526 10 232 3.2 0.0 0.00 0.00 0.00 82 1016.2
20260506003121 10 232 4.8 0.0 0.00 0.00 0.00 82 1016.2
20260506003023 10 232 4.8 0.0 0.00 0.00 0.00 82 1016.4
20260506002957 10 232 3.2 8.0 0.00 0.00 0.00 82 1015.9
20260506002534 10 232 4.8 0.0 0.00 0.00 0.00 82 1016.3
20260506002023 10 250 4.8 0.0 0.00 0.00 0.00 82 1016.2
20260506001956 10 250 3.2 4.8 0.00 0.00 0.00 82 1015.8
20260506001620 10 250 3.2 0.0 0.00 0.00 0.00 82 1016.2
20260506001552 10 250 4.8 0.0 0.00 0.00 0.00 82 1016.2
20260506001029 10 250 4.8 0.0 0.00 0.00 0.00 82 1016.2
20260506000957 10 250 3.2 4.8 0.00 0.00 0.00 82 1015.9
20260506000545 10 250 4.8 0.0 0.00 0.00 0.00 82 1016.1
20260506000042 10 250 4.8 0.0 0.00 0.00 0.00 81 1016.1
20260506000021 10 250 4.8 0.0 0.00 0.00 0.00 81 1016.1
20260505235957 10 250 4.8 4.8 0.00 0.00 0.00 81 1015.6
20260505235530 10 248 4.8 0.0 0.00 0.00 0.00 81 1016.1
20260505235028 10 243 4.8 0.0 0.00 0.00 0.00 81 1016.2
20260505234957 10 243 6.4 8.0 0.00 0.00 0.00 81 1015.6
20260505234556 10 233 4.8 0.0 0.00 0.00 0.00 81 1016.0
20260505234534 10 233 4.8 0.0 0.00 0.00 0.00 81 1016.0
20260505234051 11 232 4.8 0.0 0.00 0.00 0.00 81 1016.0
20260505233957 10 232 4.8 8.0 0.00 0.00 0.00 81 1015.7
20260505233527 11 227 4.8 0.0 0.00 0.00 0.00 81 1016.1
20260505233035 11 243 6.4 0.0 0.00 0.00 0.00 82 1016.2
20260505233012 10 243 6.4 0.0 0.00 0.00 0.00 82 1016.2
20260505232957 11 243 4.8 8.0 0.00 0.00 0.00 82 1015.7
20260505232528 11 247 8.0 0.0 0.00 0.00 0.00 82 1016.0
20260505232024 11 241 6.4 0.0 0.00 0.00 0.00 82 1016.0
20260505231956 11 242 8.0 9.7 0.00 0.00 0.00 82 1015.7
20260505231540 11 243 4.8 0.0 0.00 0.00 0.00 82 1016.0
20260505231521 10 244 4.8 0.0 0.00 0.00 0.00 82 1016.0
20260505231030 11 231 3.2 0.0 0.00 0.00 0.00 82 1016.0
20260505230956 11 228 3.2 4.8 0.00 0.00 0.00 82 1015.8
20260505230526 11 224 3.2 0.0 0.00 0.00 0.00 82 1016.0
20260505230058 10 223 3.2 0.0 0.00 0.00 0.00 82 1016.1
20260505230033 11 223 3.2 0.0 0.00 0.00 0.00 82 1016.2
20260505225956 11 223 3.2 4.8 0.00 0.00 0.00 82 1015.8
20260505225532 11 222 3.2 0.0 0.00 0.00 0.00 82 1016.2
20260505225024 11 222 6.4 0.0 0.00 0.00 0.00 83 1016.2
20260505224957 11 222 4.8 9.7 0.00 0.00 0.00 83 1015.9
20260505224600 10 222 6.4 0.0 0.00 0.00 0.00 83 1016.3
20260505224519 11 223 8.0 0.0 0.00 0.00 0.00 83 1016.2
20260505224052 11 226 8.0 0.0 0.00 0.00 0.00 84 1016.3
20260505223957 11 225 8.0 9.7 0.00 0.00 0.00 84 1015.8
20260505223530 10 227 8.0 0.0 0.00 0.00 0.00 84 1016.2
20260505223150 10 223 6.4 0.0 0.00 0.00 0.00 84 1016.1
20260505223043 10 221 6.4 0.0 0.00 0.00 0.00 84 1016.3
20260505222957 10 219 8.0 9.7 0.00 0.00 0.00 84 1015.9
20260505222553 10 221 6.4 0.0 0.00 0.00 0.00 84 1016.3
20260505222021 10 223 6.4 0.0 0.00 0.00 0.00 83 1016.4
20260505221610 10 210 4.8 0.0 0.00 0.00 0.00 83 1016.4
20260505221555 10 210 4.8 0.0 0.00 0.00 0.00 83 1016.6
20260505221030 11 211 4.8 0.0 0.00 0.00 0.00 83 1016.4
20260505220958 11 211 4.8 4.8 0.00 0.00 0.00 83 1016.1
20260505220521 11 211 4.8 0.0 0.00 0.00 0.00 82 1016.6
20260505220055 10 211 6.4 0.0 0.00 0.00 0.00 82 1016.3
20260505220032 11 211 6.4 0.0 0.00 0.00 0.00 82 1016.3
20260505215956 11 211 4.8 8.0 0.00 0.00 0.00 82 1016.0
20260505215529 11 211 6.4 0.0 0.00 0.00 0.00 82 1016.3
20260505215015 11 211 4.8 0.0 0.00 0.00 0.00 81 1016.4
20260505214956 11 211 4.8 8.0 0.00 0.00 0.00 81 1015.9
20260505214600 11 224 4.8 0.0 0.00 0.00 0.00 81 1016.4
20260505214533 11 224 4.8 0.0 0.00 0.00 0.00 81 1016.2
20260505214027 11 225 4.8 0.0 0.00 0.00 0.00 81 1016.3
20260505213957 11 225 3.2 4.8 0.00 0.00 0.00 81 1015.9
20260505213516 11 225 3.2 0.0 0.00 0.00 0.00 81 1016.2
20260505213106 11 225 3.2 0.0 0.00 0.00 0.00 81 1016.3
20260505213052 11 225 3.2 0.0 0.00 0.00 0.00 81 1016.2
20260505212957 11 225 4.8 4.8 0.00 0.00 0.00 81 1015.9
20260505212529 11 227 1.6 0.0 0.00 0.00 0.00 81 1016.2
20260505212043 11 227 1.6 0.0 0.00 0.00 0.00 81 1016.1
20260505211957 11 227 1.6 4.8 0.00 0.00 0.00 81 1015.8
20260505211539 12 227 3.2 0.0 0.00 0.00 0.00 81 1016.1
20260505211510 11 227 3.2 0.0 0.00 0.00 0.00 81 1016.2
20260505211030 12 227 4.8 0.0 0.00 0.00 0.00 81 1016.3
20260505210957 11 227 4.8 8.0 0.00 0.00 0.00 81 1015.8
20260505210524 11 228 6.4 0.0 0.00 0.00 0.00 81 1016.3
20260505210037 12 230 6.4 0.0 0.00 0.00 0.00 81 1016.2
20260505210013 11 231 6.4 0.0 0.00 0.00 0.00 81 1016.3
20260505205956 12 231 8.0 8.0 0.00 0.00 0.00 81 1015.9
20260505205528 12 215 4.8 0.0 0.00 0.00 0.00 81 1016.3
20260505205021 12 204 6.4 0.0 0.00 0.00 0.00 80 1016.2
20260505204957 12 206 3.2 11.3 0.00 0.00 0.00 80 1015.8
20260505204536 12 208 6.4 0.0 0.00 0.00 0.00 80 1016.2
20260505204513 12 208 8.0 0.0 0.00 0.00 0.00 80 1016.1
20260505204048 12 174 8.0 0.0 0.00 0.00 0.00 81 1016.1
20260505203520 12 238 8.0 0.0 0.00 0.00 0.00 80 1016.1
20260505203124 12 234 8.0 0.0 0.00 0.00 0.00 80 1015.9
20260505203050 12 240 8.0 0.0 0.00 0.00 0.00 80 1016.2
20260505202958 12 242 8.0 11.3 0.00 0.00 0.00 80 1015.6
20260505202527 12 248 4.8 0.0 0.00 0.00 0.00 80 1016.0
20260505202040 12 228 4.8 0.0 0.00 0.00 0.00 79 1016.1
20260505201957 12 218 3.2 4.8 0.00 0.00 0.00 79 1015.9
20260505201609 12 200 4.8 0.0 0.00 0.00 0.00 79 1016.3
20260505201530 12 200 4.8 0.0 0.00 0.00 0.00 79 1016.0
20260505201045 13 190 4.8 0.0 0.00 0.00 0.00 77 1016.1
20260505200958 13 190 3.2 4.8 0.00 0.00 0.00 77 1015.7
20260505200536 13 190 4.8 0.0 0.00 0.00 0.00 77 1015.9
20260505200052 13 190 4.8 0.0 0.00 0.00 0.00 76 1015.8
20260505200028 13 190 4.8 0.0 0.00 0.00 0.00 76 1016.0
20260505195957 13 190 3.2 8.0 0.00 0.00 0.00 76 1015.7
20260505195525 13 198 3.2 0.0 0.00 0.00 0.00 76 1016.1
20260505195038 13 257 1.6 0.0 0.00 0.00 0.00 75 1016.0
20260505194958 13 257 1.6 4.8 0.00 0.00 0.00 75 1015.5
20260505194553 13 257 1.6 0.0 0.00 0.00 0.00 75 1015.8
20260505194524 13 257 1.6 0.0 0.00 0.00 0.00 75 1015.8
20260505194022 13 257 1.6 0.0 0.00 0.00 0.00 74 1015.9
20260505193959 13 257 1.6 4.8 0.00 0.00 0.00 73 1015.5
20260505193533 14 257 1.6 0.0 0.00 0.00 0.00 73 1015.9
20260505193058 13 258 3.2 0.0 0.00 0.00 0.00 72 1015.8
20260505193023 14 258 3.2 0.0 0.00 0.00 0.00 72 1015.8
20260505192957 14 258 1.6 4.8 0.00 0.00 0.00 72 1015.5
20260505192519 14 258 4.8 0.0 0.00 0.00 0.00 72 1015.7
20260505192034 14 258 4.8 0.0 0.00 0.00 0.00 71 1015.6
20260505191957 14 258 3.2 4.8 0.00 0.00 0.00 71 1015.1
20260505191630 14 258 4.8 0.0 0.00 0.00 0.00 71 1015.4
20260505191524 15 258 4.8 0.0 0.00 0.00 0.00 71 1015.4
20260505191025 15 259 3.2 0.0 0.00 0.00 0.00 69 1015.3
20260505190957 15 259 3.2 4.8 0.00 0.00 0.00 69 1014.9
20260505190531 15 259 4.8 0.0 0.00 0.00 0.00 69 1015.3
20260505190113 15 259 6.4 0.0 0.00 0.00 0.00 68 1015.0
20260505190027 15 256 6.4 0.0 0.00 0.00 0.00 67 1015.3
20260505185958 15 255 4.8 8.0 0.00 0.00 0.00 67 1014.6
20260505185541 16 242 4.8 0.0 0.00 0.00 0.00 66 1014.9
20260505185031 16 264 3.2 0.0 0.00 0.00 0.00 65 1014.8
20260505184957 16 264 3.2 4.8 0.00 0.00 0.00 64 1014.5
20260505184627 16 264 3.2 0.0 0.00 0.00 0.00 63 1014.7
20260505184551 16 264 3.2 0.0 0.00 0.00 0.00 63 1014.7
20260505184027 17 348 1.6 0.0 0.00 0.00 0.00 61 1014.7
20260505183957 17 348 1.6 4.8 0.00 0.00 0.00 61 1014.3
20260505183542 17 67 3.2 0.0 0.00 0.00 0.00 60 1014.8
20260505183048 17 67 3.2 0.0 0.00 0.00 0.00 58 1014.6
20260505183029 17 67 3.2 0.0 0.00 0.00 0.00 58 1014.7
20260505182957 17 67 3.2 4.8 0.00 0.00 0.00 57 1014.4
20260505182525 17 44 3.2 0.0 0.00 0.00 0.00 57 1014.8
20260505182041 17 87 3.2 0.0 0.00 0.00 0.00 58 1014.5
20260505181958 17 87 1.6 4.8 0.00 0.00 0.00 58 1014.2
20260505181634 17 87 3.2 0.0 0.00 0.00 0.00 57 1014.5
20260505181550 17 87 3.2 0.0 0.00 0.00 0.00 57 1014.3
20260505181028 17 84 1.6 0.0 0.00 0.00 0.00 56 1014.3
20260505180958 17 77 1.6 4.8 0.00 0.00 0.00 56 1013.9
20260505180531 17 186 1.6 0.0 0.00 0.00 0.00 56 1014.2
20260505180118 17 186 3.2 0.0 0.00 0.00 0.00 55 1014.3
20260505180030 17 175 4.8 0.0 0.00 0.00 0.00 55 1014.3
20260505175957 17 175 1.6 11.3 0.00 0.00 0.00 55 1013.8
20260505175521 18 113 8.0 0.0 0.00 0.00 0.00 55 1014.2
20260505175033 18 108 9.7 0.0 0.00 0.00 0.00 54 1014.1
20260505174958 18 103 6.4 14.5 0.00 0.00 0.00 54 1013.8
20260505174624 17 92 11.3 0.0 0.00 0.00 0.00 53 1013.9
20260505174530 18 91 9.7 0.0 0.00 0.00 0.00 53 1014.1
20260505174019 18 106 11.3 0.0 0.00 0.00 0.00 53 1014.0
20260505173957 18 103 9.7 16.1 0.00 0.00 0.00 53 1013.7
20260505173532 18 113 8.0 0.0 0.00 0.00 0.00 52 1014.0
20260505173032 18 101 6.4 0.0 0.00 0.00 0.00 52 1013.9
20260505173003 18 94 6.4 0.0 0.00 0.00 0.00 52 1014.1
20260505172957 18 108 6.4 12.9 0.00 0.00 0.00 52 1013.6
20260505172522 18 122 9.7 0.0 0.00 0.00 0.00 50 1014.1
20260505172030 19 155 12.9 0.0 0.00 0.00 0.00 49 1014.1
20260505171957 19 141 9.7 22.5 0.00 0.00 0.00 49 1013.7
20260505171627 19 126 16.1 0.0 0.00 0.00 0.00 48 1013.9
20260505171521 19 113 16.1 0.0 0.00 0.00 0.00 48 1014.0
20260505171032 20 116 17.7 0.0 0.00 0.00 0.00 47 1013.7
20260505170958 20 108 17.7 27.4 0.00 0.00 0.00 46 1013.4
20260505170530 20 116 19.3 0.0 0.00 0.00 0.00 46 1013.7
20260505170137 20 115 19.3 0.0 0.00 0.00 0.00 45 1013.6
20260505170045 20 126 19.3 0.0 0.00 0.00 0.00 45 1013.8
20260505165541 20 113 20.9 0.0 0.00 0.00 0.00 45 1013.7
20260505165059 20 128 20.9 0.0 0.00 0.00 0.00 45 1013.7
20260505164958 20 124 22.5 32.2 0.00 0.00 0.00 45 1013.3
20260505164607 20 140 20.9 0.0 0.00 0.00 0.00 44 1013.3
20260505164532 21 137 20.9 0.0 0.00 0.00 0.00 44 1013.4
20260505164020 21 116 20.9 0.0 0.00 0.00 0.00 43 1013.5
20260505163958 21 103 24.1 32.2 0.00 0.00 0.00 43 1013.1
20260505163556 21 85 22.5 0.0 0.00 0.00 0.00 43 1013.7
20260505163046 22 92 22.5 0.0 0.00 0.00 0.00 43 1013.5
20260505163025 22 84 22.5 0.0 0.00 0.00 0.00 43 1013.5
20260505162520 22 101 19.3 0.0 0.00 0.00 0.00 44 1013.6
20260505162050 22 90 19.3 0.0 0.00 0.00 0.00 45 1013.4
20260505161958 22 96 17.7 25.7 0.00 0.00 0.00 45 1013.0
20260505161629 22 81 19.3 0.0 0.00 0.00 0.00 44 1013.3
20260505161525 22 88 19.3 0.0 0.00 0.00 0.00 44 1013.4
20260505161039 22 107 19.3 0.0 0.00 0.00 0.00 45 1013.2
20260505160958 22 99 19.3 25.7 0.00 0.00 0.00 45 1012.8
20260505160527 23 97 19.3 0.0 0.00 0.00 0.00 45 1013.2
20260505160125 22 96 20.9 0.0 0.00 0.00 0.00 44 1013.1